sat.trackr.live / text

‹ back to catalog

ONEWEB-0224

NORAD 48794 · 2021-045AD

PAYLOAD ACTIVE UNKNOWN

§ Identity

Operator
Country
UK
Launch date
2021-05-28
Launch site
VOSTO
Launch vehicle
Mass (kg)
RCS (m²)

Purposes: comms

External: N2YO · Heavens-Above · Gunter

§ Orbital elements

Epoch: 2026-09-19T22:24:36.802656Z

Period
109.46 min
Inclination
87.8985°
Eccentricity
0.0001121
Mean motion
13.15548577 rev/d
Perigee alt
1,200.9 km
Apogee alt
1,202.6 km
Semi-major
7,579.9 km
B*
4.5352e-4
RAAN
240.3332°
Arg perigee
75.0786°
Mean anomaly
285.0468°
Rev number
25,673

§ Raw data

ONEWEB-02241 48794U 21045AD  26262.93375929  .00000184  00000+0  45352-3 0  99932 48794  87.8985 240.3332 0001121  75.0786 285.0468 13.15548577256736

JSON: /api/v1/satellites/48794 · /tle

For live sub-satellite position, see the globe view (requires WebGL).

§ Visibility from observer

Set your observer location to see the next 7 days of passes ≥ 10°. The values pass through the URL so the page stays shareable.

No JS? Fill the form by hand. The geolocation button needs JavaScript.